| time (UTC) | temp F | wind direction | speed knots | gust knots | rain 1hr in | rain 24hr in | rain mn in | humidity % | barometer mb |
| 20260506222004 | 61 | 211 | 1.7 | 2.6 | 0.00 | 0.18 | 0.18 | 94 | 970.5 |
| 20260506221504 | 61 | 274 | 2.6 | 2.6 | 0.00 | 0.18 | 0.18 | 94 | 970.5 |
| 20260506221004 | 61 | 225 | 1.7 | 2.6 | 0.00 | 0.18 | 0.18 | 94 | 970.4 |
| 20260506220504 | 61 | 189 | 0.9 | 2.6 | 0.00 | 0.18 | 0.18 | 94 | 970.4 |
| 20260506220004 | 61 | 208 | 1.7 | 2.6 | 0.00 | 0.18 | 0.18 | 94 | 970.4 |
| 20260506215504 | 61 | 161 | 2.6 | 4.3 | 0.00 | 0.18 | 0.18 | 95 | 970.4 |
| 20260506215004 | 61 | 224 | 0.9 | 2.6 | 0.00 | 0.18 | 0.18 | 95 | 970.3 |
| 20260506214504 | 61 | 189 | 1.7 | 2.6 | 0.00 | 0.18 | 0.18 | 95 | 970.2 |
| 20260506213504 | 61 | 222 | 1.7 | 1.7 | 0.00 | 0.18 | 0.18 | 95 | 970.3 |
| 20260506213004 | 61 | 223 | 1.7 | 2.6 | 0.00 | 0.18 | 0.18 | 95 | 970.3 |
| 20260506212504 | 61 | 225 | 1.7 | 2.6 | 0.00 | 0.18 | 0.18 | 95 | 970.3 |
| 20260506212004 | 61 | 239 | 1.7 | 2.6 | 0.00 | 0.18 | 0.18 | 95 | 970.3 |
| 20260506211004 | 60 | 151 | 1.7 | 2.6 | 0.00 | 0.18 | 0.18 | 95 | 970.2 |
| 20260506210504 | 60 | 205 | 1.7 | 1.7 | 0.00 | 0.18 | 0.18 | 95 | 970.2 |
| 20260506210004 | 60 | 179 | 1.7 | 1.7 | 0.00 | 0.18 | 0.18 | 95 | 970.1 |
| 20260506205004 | 60 | 221 | 1.7 | 2.6 | 0.00 | 0.18 | 0.18 | 95 | 970.0 |
| 20260506204504 | 60 | 185 | 1.7 | 2.6 | 0.00 | 0.18 | 0.18 | 95 | 970.0 |
| 20260506204004 | 60 | 180 | 1.7 | 1.7 | 0.00 | 0.18 | 0.18 | 95 | 970.0 |
| 20260506203004 | 60 | 188 | 1.7 | 2.6 | 0.00 | 0.18 | 0.18 | 95 | 970.0 |
| 20260506202504 | 60 | 219 | 2.6 | 4.3 | 0.00 | 0.18 | 0.18 | 95 | 970.1 |
| 20260506202004 | 60 | 225 | 1.7 | 1.7 | 0.00 | 0.18 | 0.18 | 95 | 970.1 |
| 20260506201504 | 60 | 270 | 1.7 | 1.7 | 0.00 | 0.18 | 0.18 | 95 | 970.1 |
| 20260506201004 | 60 | 189 | 1.7 | 2.6 | 0.00 | 0.18 | 0.18 | 95 | 970.1 |
| 20260506200504 | 60 | 174 | 1.7 | 2.6 | 0.00 | 0.18 | 0.18 | 95 | 970.1 |
| 20260506200005 | 60 | 221 | 1.7 | 2.6 | 0.00 | 0.18 | 0.18 | 95 | 970.2 |
| 20260506195504 | 60 | 210 | 0.9 | 5.2 | 0.00 | 0.18 | 0.18 | 95 | 970.2 |
| 20260506194504 | 60 | 220 | 1.7 | 2.6 | 0.00 | 0.18 | 0.18 | 95 | 970.3 |
| 20260506194004 | 60 | 225 | 1.7 | 1.7 | 0.00 | 0.18 | 0.18 | 95 | 970.3 |
| 20260506193004 | 60 | 140 | 1.7 | 2.6 | 0.02 | 0.18 | 0.18 | 95 | 970.4 |
| 20260506192504 | 60 | 180 | 2.6 | 2.6 | 0.02 | 0.18 | 0.18 | 95 | 970.6 |
| 20260506192004 | 60 | 229 | 1.7 | 4.3 | 0.02 | 0.18 | 0.18 | 95 | 970.6 |
| 20260506191504 | 60 | 164 | 0.9 | 4.3 | 0.02 | 0.18 | 0.18 | 95 | 970.6 |
| 20260506191004 | 60 | 197 | 0.9 | 2.6 | 0.02 | 0.18 | 0.18 | 95 | 970.7 |
| 20260506190504 | 60 | 204 | 1.7 | 2.6 | 0.03 | 0.18 | 0.18 | 95 | 970.7 |
| 20260506190005 | 60 | 165 | 0.9 | 1.7 | 0.03 | 0.18 | 0.18 | 95 | 970.7 |
| 20260506185505 | 60 | 194 | 1.7 | 2.6 | 0.04 | 0.18 | 0.18 | 95 | 970.7 |
| 20260506184505 | 60 | 171 | 0.0 | 1.7 | 0.04 | 0.18 | 0.18 | 95 | 970.9 |
| 20260506183504 | 60 | 210 | 0.9 | 2.6 | 0.03 | 0.17 | 0.17 | 95 | 971.0 |
| 20260506183005 | 60 | 180 | 1.7 | 2.6 | 0.02 | 0.16 | 0.16 | 95 | 971.0 |
| 20260506182004 | 60 | 199 | 1.7 | 1.7 | 0.02 | 0.16 | 0.16 | 95 | 971.1 |
| 20260506181504 | 60 | 228 | 2.6 | 4.3 | 0.02 | 0.16 | 0.16 | 95 | 971.1 |
| 20260506181004 | 59 | 134 | 2.6 | 2.6 | 0.03 | 0.16 | 0.16 | 95 | 971.1 |
| 20260506180504 | 59 | 196 | 1.7 | 1.7 | 0.02 | 0.15 | 0.15 | 95 | 971.1 |
| 20260506175504 | 59 | 190 | 1.7 | 5.2 | 0.01 | 0.14 | 0.14 | 95 | 971.2 |
| 20260506175004 | 59 | 158 | 1.7 | 2.6 | 0.01 | 0.14 | 0.14 | 95 | 971.2 |
| 20260506174504 | 59 | 185 | 0.9 | 2.6 | 0.02 | 0.14 | 0.14 | 95 | 971.2 |
| 20260506174004 | 59 | 199 | 2.6 | 4.3 | 0.02 | 0.14 | 0.14 | 95 | 971.2 |
| 20260506173504 | 59 | 175 | 0.0 | 1.7 | 0.02 | 0.14 | 0.14 | 95 | 971.2 |
| 20260506173004 | 59 | 235 | 2.6 | 4.3 | 0.03 | 0.14 | 0.14 | 95 | 971.2 |
| 20260506172004 | 59 | 223 | 1.7 | 5.2 | 0.04 | 0.14 | 0.14 | 95 | 971.2 |
| 20260506171504 | 59 | 169 | 2.6 | 4.3 | 0.04 | 0.14 | 0.14 | 95 | 971.2 |
| 20260506171004 | 59 | 180 | 3.5 | 5.2 | 0.03 | 0.13 | 0.13 | 95 | 971.2 |
| 20260506165504 | 59 | 225 | 0.9 | 2.6 | 0.05 | 0.13 | 0.13 | 95 | 971.3 |
| 20260506165005 | 59 | 188 | 0.9 | 2.6 | 0.05 | 0.13 | 0.13 | 95 | 971.3 |
| 20260506164504 | 59 | 195 | 1.7 | 5.2 | 0.05 | 0.12 | 0.12 | 95 | 971.4 |
| 20260506164004 | 59 | 212 | 2.6 | 5.2 | 0.06 | 0.12 | 0.12 | 95 | 971.4 |
| 20260506163004 | 59 | 192 | 1.7 | 2.6 | 0.06 | 0.11 | 0.11 | 95 | 971.2 |
| 20260506162004 | 60 | 228 | 0.9 | 2.6 | 0.06 | 0.10 | 0.10 | 94 | 971.3 |
| 20260506161004 | 60 | 207 | 2.6 | 2.6 | 0.06 | 0.10 | 0.10 | 94 | 971.4 |
| 20260506160504 | 60 | 205 | 2.6 | 5.2 | 0.06 | 0.10 | 0.10 | 94 | 971.4 |
| 20260506160004 | 60 | 132 | 2.6 | 4.3 | 0.05 | 0.09 | 0.09 | 94 | 971.8 |
| 20260506155504 | 60 | 157 | 1.7 | 4.3 | 0.04 | 0.08 | 0.08 | 94 | 971.8 |
| 20260506154504 | 60 | 183 | 1.7 | 2.6 | 0.04 | 0.07 | 0.07 | 94 | 972.3 |
| 20260506154004 | 60 | 204 | 1.7 | 2.6 | 0.03 | 0.06 | 0.06 | 93 | 972.3 |
| 20260506153504 | 60 | 222 | 1.7 | 4.3 | 0.03 | 0.05 | 0.05 | 93 | 971.9 |
| 20260506153004 | 61 | 237 | 2.6 | 5.2 | 0.03 | 0.05 | 0.05 | 93 | 971.9 |
| 20260506152504 | 61 | 166 | 0.9 | 1.7 | 0.03 | 0.05 | 0.05 | 93 | 971.7 |
| 20260506151504 | 61 | 219 | 2.6 | 4.3 | 0.03 | 0.04 | 0.04 | 93 | 971.7 |
| 20260506150504 | 61 | 143 | 1.7 | 4.3 | 0.04 | 0.04 | 0.04 | 93 | 971.9 |
| 20260506145504 | 60 | 207 | 1.7 | 2.6 | 0.04 | 0.04 | 0.04 | 93 | 971.9 |
| 20260506145004 | 60 | 163 | 2.6 | 2.6 | 0.03 | 0.03 | 0.03 | 93 | 972.0 |
| 20260506144504 | 60 | 158 | 1.7 | 2.6 | 0.03 | 0.03 | 0.03 | 92 | 972.2 |
| 20260506144004 | 60 | 138 | 1.7 | 1.7 | 0.03 | 0.03 | 0.03 | 92 | 972.2 |
| 20260506143504 | 60 | 211 | 1.7 | 2.6 | 0.02 | 0.02 | 0.02 | 92 | 972.4 |
| 20260506143004 | 60 | 158 | 0.0 | 0.9 | 0.02 | 0.02 | 0.02 | 92 | 972.4 |
| 20260506142504 | 60 | 157 | 1.7 | 1.7 | 0.02 | 0.02 | 0.02 | 92 | 972.5 |
| 20260506142005 | 60 | 168 | 1.7 | 1.7 | 0.01 | 0.01 | 0.01 | 91 | 972.5 |
| 20260506141504 | 60 | 158 | 1.7 | 2.6 | 0.01 | 0.01 | 0.01 | 91 | 972.5 |
| 20260506140504 | 61 | 169 | 1.7 | 1.7 | 0.00 | 0.00 | 0.00 | 90 | 972.5 |
| 20260506135504 | 61 | 161 | 1.7 | 1.7 | 0.00 | 0.00 | 0.00 | 89 | 972.4 |
| 20260506135003 | 61 | 206 | 0.0 | 1.7 | 0.00 | 0.00 | 0.00 | 89 | 972.5 |
| 20260506134504 | 61 | 180 | 1.7 | 2.6 | 0.00 | 0.00 | 0.00 | 89 | 972.5 |
| 20260506134004 | 61 | 228 | 1.7 | 2.6 | 0.00 | 0.00 | 0.00 | 88 | 972.5 |
| 20260506133504 | 62 | 202 | 1.7 | 5.2 | 0.00 | 0.00 | 0.00 | 87 | 972.6 |
| 20260506133004 | 62 | 203 | 1.7 | 4.3 | 0.00 | 0.00 | 0.00 | 87 | 972.6 |
| 20260506132504 | 62 | 187 | 1.7 | 2.6 | 0.00 | 0.00 | 0.00 | 87 | 972.6 |
| 20260506132005 | 63 | 175 | 2.6 | 5.2 | 0.00 | 0.00 | 0.00 | 85 | 972.6 |
| 20260506131504 | 63 | 243 | 2.6 | 5.2 | 0.00 | 0.00 | 0.00 | 84 | 972.6 |
| 20260506131004 | 64 | 148 | 1.7 | 5.2 | 0.00 | 0.00 | 0.00 | 84 | 972.3 |
| 20260506130504 | 64 | 226 | 2.6 | 5.2 | 0.00 | 0.00 | 0.00 | 84 | 972.3 |
| 20260506130005 | 63 | 222 | 3.5 | 4.3 | 0.00 | 0.00 | 0.00 | 84 | 972.1 |
| 20260506125504 | 63 | 139 | 1.7 | 5.2 | 0.00 | 0.00 | 0.00 | 84 | 972.1 |
| 20260506125004 | 63 | 189 | 1.7 | 2.6 | 0.00 | 0.00 | 0.00 | 85 | 972.1 |
| 20260506124504 | 63 | 191 | 2.6 | 4.3 | 0.00 | 0.00 | 0.00 | 85 | 972.2 |
| 20260506123004 | 64 | 189 | 2.6 | 4.3 | 0.00 | 0.00 | 0.00 | 84 | 972.1 |
| 20260506122504 | 64 | 166 | 1.7 | 4.3 | 0.00 | 0.00 | 0.00 | 83 | 972.3 |
| 20260506122004 | 64 | 207 | 2.6 | 4.3 | 0.00 | 0.00 | 0.00 | 83 | 972.3 |
| 20260506121504 | 64 | 205 | 2.6 | 5.2 | 0.00 | 0.00 | 0.00 | 83 | 972.3 |
| 20260506115504 | 63 | 180 | 1.7 | 2.6 | 0.00 | 0.00 | 0.00 | 83 | 972.3 |
| 20260506115004 | 63 | 233 | 2.6 | 4.3 | 0.00 | 0.00 | 0.00 | 83 | 972.3 |
| 20260506114504 | 63 | 189 | 1.7 | 5.2 | 0.00 | 0.00 | 0.00 | 83 | 972.3 |
| 20260506114004 | 63 | 184 | 1.7 | 5.2 | 0.00 | 0.00 | 0.00 | 83 | 972.3 |
| 20260506113504 | 63 | 209 | 2.6 | 5.2 | 0.00 | 0.00 | 0.00 | 83 | 972.3 |
| 20260506113004 | 63 | 225 | 1.7 | 5.2 | 0.00 | 0.00 | 0.00 | 83 | 972.3 |
| 20260506112504 | 63 | 190 | 1.7 | 2.6 | 0.00 | 0.00 | 0.00 | 82 | 972.4 |
| 20260506112004 | 63 | 124 | 2.6 | 2.6 | 0.00 | 0.00 | 0.00 | 82 | 972.4 |
| 20260506111004 | 63 | 202 | 2.6 | 2.6 | 0.00 | 0.00 | 0.00 | 82 | 972.2 |
| 20260506110504 | 63 | 202 | 1.7 | 4.3 | 0.00 | 0.00 | 0.00 | 82 | 972.2 |
| 20260506110004 | 63 | 181 | 1.7 | 2.6 | 0.00 | 0.00 | 0.00 | 82 | 971.9 |
| 20260506105504 | 63 | 184 | 0.9 | 2.6 | 0.00 | 0.00 | 0.00 | 82 | 971.9 |
| 20260506105004 | 62 | 194 | 0.9 | 2.6 | 0.00 | 0.00 | 0.00 | 82 | 971.9 |
| 20260506104004 | 62 | 154 | 1.7 | 4.3 | 0.00 | 0.00 | 0.00 | 82 | 971.9 |
| 20260506103504 | 62 | 167 | 1.7 | 4.3 | 0.00 | 0.00 | 0.00 | 82 | 972.0 |
| 20260506103004 | 62 | 164 | 0.9 | 2.6 | 0.00 | 0.00 | 0.00 | 82 | 972.0 |
| 20260506102504 | 62 | 170 | 0.9 | 1.7 | 0.00 | 0.00 | 0.00 | 82 | 972.0 |
| 20260506101504 | 62 | 180 | 0.0 | 1.7 | 0.00 | 0.00 | 0.00 | 81 | 972.0 |
| 20260506101004 | 62 | 130 | 0.9 | 2.6 | 0.00 | 0.00 | 0.00 | 81 | 972.1 |
| 20260506100504 | 62 | 191 | 1.7 | 2.6 | 0.00 | 0.00 | 0.00 | 81 | 972.1 |
| 20260506100004 | 62 | 160 | 1.7 | 4.3 | 0.00 | 0.00 | 0.00 | 80 | 972.0 |
| 20260506095004 | 62 | 195 | 0.9 | 1.7 | 0.00 | 0.00 | 0.00 | 80 | 972.0 |
| 20260506094503 | 62 | 201 | 1.7 | 1.7 | 0.00 | 0.00 | 0.00 | 80 | 972.0 |
| 20260506093504 | 62 | 153 | 0.9 | 1.7 | 0.00 | 0.00 | 0.00 | 79 | 971.9 |
| 20260506093004 | 62 | 193 | 1.7 | 2.6 | 0.00 | 0.00 | 0.00 | 79 | 971.9 |
| 20260506092504 | 62 | 149 | 1.7 | 1.7 | 0.00 | 0.00 | 0.00 | 79 | 971.9 |
| 20260506092004 | 62 | 176 | 0.9 | 2.6 | 0.00 | 0.00 | 0.00 | 79 | 971.9 |
| 20260506091504 | 62 | 188 | 1.7 | 4.3 | 0.00 | 0.00 | 0.00 | 79 | 971.9 |
| 20260506091004 | 62 | 210 | 1.7 | 4.3 | 0.00 | 0.00 | 0.00 | 79 | 972.1 |
| 20260506090504 | 62 | 209 | 0.9 | 2.6 | 0.00 | 0.00 | 0.00 | 79 | 972.1 |
| 20260506090004 | 62 | 174 | 1.7 | 1.7 | 0.00 | 0.00 | 0.00 | 79 | 972.2 |
| 20260506085504 | 62 | 158 | 1.7 | 1.7 | 0.00 | 0.00 | 0.00 | 79 | 972.2 |
| 20260506085004 | 62 | 101 | 0.9 | 1.7 | 0.00 | 0.00 | 0.00 | 78 | 972.2 |
| 20260506084504 | 62 | 126 | 0.9 | 2.6 | 0.00 | 0.00 | 0.00 | 78 | 972.2 |
| 20260506083504 | 62 | 180 | 0.0 | 0.0 | 0.00 | 0.00 | 0.00 | 78 | 972.3 |
| 20260506083004 | 62 | 180 | 0.0 | 0.9 | 0.00 | 0.00 | 0.00 | 78 | 972.3 |
| 20260506082504 | 62 | 158 | 0.9 | 0.9 | 0.00 | 0.00 | 0.00 | 78 | 972.2 |
| 20260506082004 | 62 | 115 | 1.7 | 1.7 | 0.00 | 0.00 | 0.00 | 77 | 972.2 |
| 20260506081504 | 62 | 140 | 0.0 | 0.0 | 0.00 | 0.00 | 0.00 | 76 | 972.2 |
| 20260506081004 | 62 | 158 | 0.0 | 0.0 | 0.00 | 0.00 | 0.00 | 76 | 972.3 |
| 20260506080504 | 62 | 180 | 0.0 | 0.9 | 0.00 | 0.00 | 0.00 | 76 | 972.3 |
| 20260506073504 | 63 | 157 | 0.0 | 0.9 | 0.00 | 0.00 | 0.00 | 73 | 972.4 |
| 20260506073004 | 63 | 154 | 0.9 | 0.9 | 0.00 | 0.00 | 0.00 | 73 | 972.4 |
| 20260506072504 | 63 | 180 | 0.9 | 0.9 | 0.00 | 0.00 | 0.00 | 73 | 972.4 |
| 20260506072004 | 63 | 171 | 0.0 | 0.9 | 0.00 | 0.00 | 0.00 | 73 | 972.4 |
| 20260506071506 | 64 | 190 | 0.0 | 0.9 | 0.00 | 0.00 | 0.00 | 72 | 972.4 |
| 20260506071004 | 64 | 179 | 0.9 | 2.6 | 0.00 | 0.00 | 0.00 | 71 | 972.4 |
| 20260506070504 | 65 | 233 | 1.7 | 2.6 | 0.00 | 0.00 | 0.00 | 70 | 972.4 |
| 20260506062504 | 65 | 292 | 1.7 | 2.6 | 0.00 | 0.00 | 0.00 | 69 | 973.0 |
| 20260506062004 | 65 | 171 | 1.7 | 4.3 | 0.00 | 0.00 | 0.00 | 69 | 973.0 |
| 20260506061504 | 65 | 98 | 2.6 | 5.2 | 0.00 | 0.00 | 0.00 | 69 | 973.0 |
| 20260506060504 | 65 | 179 | 1.7 | 2.6 | 0.00 | 0.00 | 0.00 | 69 | 973.1 |
| 20260506051004 | 65 | 167 | 0.9 | 0.9 | 0.00 | 0.00 | 0.00 | 68 | 973.3 |
| 20260506050504 | 65 | 117 | 0.9 | 2.6 | 0.00 | 0.00 | 0.00 | 66 | 973.3 |
| 20260506045005 | 66 | 199 | 1.7 | 1.7 | 0.00 | 0.00 | 0.00 | 65 | 973.2 |
| 20260506044504 | 66 | 212 | 1.7 | 2.6 | 0.00 | 0.00 | 0.00 | 64 | 973.2 |
| 20260506044004 | 66 | 155 | 1.7 | 2.6 | 0.00 | 0.00 | 0.00 | 64 | 973.2 |
| 20260506043504 | 67 | 169 | 0.9 | 1.7 | 0.00 | 0.00 | 0.00 | 63 | 973.2 |
| 20260506042504 | 67 | 217 | 3.5 | 4.3 | 0.00 | 0.00 | 0.00 | 60 | 973.3 |
| 20260506042004 | 68 | 169 | 1.7 | 4.3 | 0.00 | 0.00 | 0.00 | 60 | 973.3 |
| 20260506041504 | 68 | 202 | 2.6 | 2.6 | 0.00 | 0.00 | 0.00 | 60 | 973.3 |
| 20260506040004 | 68 | 194 | 2.6 | 2.6 | 0.00 | 0.00 | 0.00 | 59 | 973.3 |
| 20260506035504 | 68 | 202 | 1.7 | 2.6 | 0.00 | 0.00 | 0.00 | 59 | 973.3 |
| 20260506034504 | 68 | 201 | 1.7 | 4.3 | 0.00 | 0.00 | 0.00 | 58 | 973.1 |
| 20260506034004 | 69 | 175 | 1.7 | 4.3 | 0.00 | 0.00 | 0.00 | 58 | 973.1 |
| 20260506033505 | 69 | 159 | 2.6 | 4.3 | 0.00 | 0.00 | 0.00 | 58 | 973.1 |
| 20260506033005 | 69 | 158 | 1.7 | 2.6 | 0.00 | 0.00 | 0.00 | 58 | 973.1 |
| 20260506032504 | 69 | 214 | 1.7 | 4.3 | 0.00 | 0.00 | 0.00 | 57 | 973.1 |
| 20260506032004 | 69 | 225 | 0.9 | 1.7 | 0.00 | 0.00 | 0.00 | 57 | 973.1 |
| 20260506031504 | 69 | 168 | 1.7 | 4.3 | 0.00 | 0.00 | 0.00 | 57 | 973.1 |
| 20260506031004 | 69 | 154 | 2.6 | 4.3 | 0.00 | 0.00 | 0.00 | 56 | 973.1 |
| 20260506030504 | 69 | 170 | 2.6 | 4.3 | 0.00 | 0.00 | 0.00 | 56 | 973.1 |
| 20260506030004 | 69 | 193 | 2.6 | 4.3 | 0.00 | 0.00 | 0.00 | 56 | 973.2 |
| 20260506025504 | 69 | 225 | 1.7 | 4.3 | 0.00 | 0.00 | 0.00 | 56 | 973.2 |
| 20260506025004 | 69 | 204 | 3.5 | 5.2 | 0.00 | 0.00 | 0.00 | 56 | 973.2 |
| 20260506024504 | 69 | 158 | 1.7 | 2.6 | 0.00 | 0.00 | 0.00 | 56 | 973.2 |
| 20260506024004 | 69 | 204 | 1.7 | 2.6 | 0.00 | 0.00 | 0.00 | 55 | 973.2 |
| 20260506023504 | 70 | 205 | 2.6 | 2.6 | 0.00 | 0.00 | 0.00 | 54 | 973.1 |
| 20260506023004 | 70 | 180 | 1.7 | 4.3 | 0.00 | 0.00 | 0.00 | 54 | 973.1 |
| 20260506022504 | 70 | 114 | 1.7 | 2.6 | 0.00 | 0.00 | 0.00 | 53 | 973.2 |
| 20260506021504 | 71 | 136 | 0.9 | 1.7 | 0.00 | 0.00 | 0.00 | 53 | 973.2 |
| 20260506021003 | 71 | 202 | 1.7 | 4.3 | 0.00 | 0.00 | 0.00 | 52 | 973.1 |
| 20260506020504 | 71 | 212 | 2.6 | 5.2 | 0.00 | 0.00 | 0.00 | 51 | 973.1 |
| 20260506020004 | 72 | 210 | 1.7 | 5.2 | 0.00 | 0.00 | 0.00 | 51 | 972.9 |
| 20260506015504 | 72 | 202 | 2.6 | 4.3 | 0.00 | 0.00 | 0.00 | 51 | 972.9 |
| 20260506014504 | 72 | 189 | 2.6 | 4.3 | 0.00 | 0.00 | 0.00 | 51 | 972.6 |
| 20260506014004 | 72 | 247 | 2.6 | 4.3 | 0.00 | 0.00 | 0.00 | 51 | 972.6 |
| 20260506013504 | 72 | 205 | 2.6 | 4.3 | 0.00 | 0.00 | 0.00 | 51 | 972.7 |
| 20260506013004 | 72 | 162 | 2.6 | 4.3 | 0.00 | 0.00 | 0.00 | 51 | 972.7 |
| 20260506012504 | 72 | 270 | 2.6 | 4.3 | 0.00 | 0.00 | 0.00 | 52 | 972.5 |
| 20260506011504 | 72 | 208 | 2.6 | 4.3 | 0.00 | 0.00 | 0.00 | 51 | 972.5 |
| 20260506011004 | 72 | 214 | 3.5 | 5.2 | 0.00 | 0.00 | 0.00 | 51 | 972.4 |
| 20260506010504 | 72 | 170 | 2.6 | 4.3 | 0.00 | 0.00 | 0.00 | 50 | 972.4 |
| 20260506010004 | 73 | 213 | 2.6 | 4.3 | 0.00 | 0.00 | 0.00 | 50 | 972.3 |
| 20260506005504 | 73 | 152 | 3.5 | 5.2 | 0.00 | 0.00 | 0.00 | 50 | 972.3 |
| 20260506005004 | 73 | 214 | 1.7 | 2.6 | 0.00 | 0.00 | 0.00 | 49 | 972.3 |
| 20260506004504 | 73 | 237 | 4.3 | 5.2 | 0.00 | 0.00 | 0.00 | 49 | 972.3 |
| 20260506004004 | 73 | 234 | 2.6 | 5.2 | 0.00 | 0.00 | 0.00 | 49 | 972.3 |
| 20260506003504 | 74 | 203 | 4.3 | 6.1 | 0.00 | 0.00 | 0.00 | 49 | 972.1 |
| 20260506003004 | 74 | 244 | 3.5 | 5.2 | 0.00 | 0.00 | 0.00 | 49 | 972.1 |
| 20260506002504 | 74 | 235 | 3.5 | 5.2 | 0.00 | 0.00 | 0.00 | 49 | 972.0 |
| 20260506002004 | 74 | 195 | 1.7 | 5.2 | 0.00 | 0.00 | 0.00 | 49 | 972.0 |
| 20260506001503 | 74 | 233 | 2.6 | 5.2 | 0.00 | 0.00 | 0.00 | 49 | 972.0 |
| 20260506001004 | 74 | 220 | 4.3 | 7.8 | 0.00 | 0.00 | 0.00 | 49 | 972.1 |
| 20260506000504 | 74 | 193 | 2.6 | 4.3 | 0.00 | 0.00 | 0.00 | 49 | 972.1 |
| 20260506000004 | 74 | 228 | 2.6 | 4.3 | 0.00 | 0.00 | 0.00 | 49 | 972.0 |
| 20260505235504 | 74 | 164 | 2.6 | 4.3 | 0.00 | 0.00 | 0.00 | 49 | 972.0 |
| 20260505235004 | 74 | 133 | 1.7 | 4.3 | 0.00 | 0.00 | 0.00 | 49 | 971.9 |
| 20260505234504 | 74 | 174 | 2.6 | 4.3 | 0.00 | 0.00 | 0.00 | 49 | 971.9 |
| 20260505234004 | 74 | 191 | 2.6 | 5.2 | 0.00 | 0.00 | 0.00 | 49 | 971.9 |
| 20260505233504 | 74 | 197 | 1.7 | 2.6 | 0.00 | 0.00 | 0.00 | 49 | 971.8 |
| 20260505233004 | 75 | 229 | 1.7 | 2.6 | 0.00 | 0.00 | 0.00 | 48 | 971.8 |
| 20260505232504 | 75 | 225 | 2.6 | 4.3 | 0.00 | 0.00 | 0.00 | 48 | 971.8 |
| 20260505232004 | 75 | 202 | 1.7 | 2.6 | 0.00 | 0.00 | 0.00 | 48 | 971.8 |
| 20260505231504 | 75 | 161 | 1.7 | 2.6 | 0.00 | 0.00 | 0.00 | 48 | 971.8 |
| 20260505230504 | 75 | 212 | 1.7 | 5.2 | 0.00 | 0.00 | 0.00 | 47 | 971.8 |
| 20260505225504 | 76 | 202 | 2.6 | 4.3 | 0.00 | 0.00 | 0.00 | 46 | 971.7 |
| 20260505225004 | 76 | 171 | 1.7 | 5.2 | 0.00 | 0.00 | 0.00 | 45 | 971.6 |
| 20260505224505 | 76 | 158 | 3.5 | 5.2 | 0.00 | 0.00 | 0.00 | 45 | 971.6 |
| 20260505224004 | 76 | 184 | 1.7 | 4.3 | 0.00 | 0.00 | 0.00 | 45 | 971.6 |
| 20260505223504 | 77 | 180 | 2.6 | 5.2 | 0.00 | 0.00 | 0.00 | 45 | 971.5 |
| 20260505223004 | 77 | 190 | 2.6 | 5.2 | 0.00 | 0.00 | 0.00 | 44 | 971.5 |
| 20260505222504 | 77 | 219 | 3.5 | 5.2 | 0.00 | 0.00 | 0.00 | 44 | 971.5 |